DELTON-WX Weather Reports


Display with metric or nautical units.
time (UTC)temp
F
wind
direction
speed
MPH
gust
MPH
rain 1hr
in
rain 24hr
in
rain mn
in
humidity
%
barometer
mb
20260505163107 51 278 11.0 0.0 0.00 0.08 0.08 58 973.0
20260505161548 50 282 11.0 0.0 0.00 0.08 0.08 58 973.0
20260505160122 49 278 11.0 0.0 0.00 0.08 0.08 58 973.0
20260505153110 48 276 12.0 0.0 0.00 0.08 0.08 55 973.8
20260505151548 49 280 12.0 0.0 0.00 0.09 0.09 55 973.7
20260505150130 48 285 12.0 0.0 0.00 0.09 0.09 55 973.7
20260505140130 48 294 14.0 0.0 0.00 0.01 0.01 60 973.6
20260505130121 49 301 9.0 0.0 0.00 0.00 0.00 71 973.4
20260505124547 50 301 10.0 0.0 0.00 0.01 0.01 72 972.5
20260505123107 49 298 11.0 0.0 0.00 0.01 0.01 73 971.0
20260505121548 48 285 11.0 0.0 0.00 0.01 0.01 73 971.0
20260505120135 48 282 13.0 0.0 0.00 0.01 0.01 73 971.0
20260505114548 48 280 11.0 0.0 0.00 0.00 0.00 72 971.1
20260505113105 48 282 9.0 0.0 0.00 0.00 0.00 68 969.9
20260505111548 48 271 9.0 0.0 0.00 0.01 0.01 68 969.9
20260505110126 48 261 8.0 0.0 0.00 0.01 0.01 68 969.9
20260505101547 50 266 10.0 0.0 0.00 0.00 0.00 66 968.6
20260505100125 50 269 10.0 0.0 0.00 0.00 0.00 66 968.6
20260505094547 50 260 6.0 0.0 0.00 0.00 0.00 77 968.7
20260505093110 51 256 6.0 0.0 0.00 0.00 0.00 78 968.6
20260505091548 51 266 11.0 0.0 0.00 0.00 0.00 78 968.5
20260505090128 50 257 8.0 0.0 0.00 0.00 0.00 78 968.5
20260505084545 50 278 11.0 0.0 0.00 0.00 0.00 74 968.6
20260505083106 51 275 11.0 0.0 0.00 0.00 0.00 72 967.8
20260505081547 51 268 11.0 0.0 0.00 0.00 0.00 72 967.8
20260505080119 52 261 12.0 0.0 0.00 0.00 0.00 76 968.3
20260505074548 53 253 12.0 0.0 0.00 0.00 0.00 82 967.7
20260505073108 53 237 10.0 0.0 0.00 0.00 0.00 82 967.7
20260505071548 54 241 12.0 0.0 0.00 0.00 0.00 82 967.7
20260505070121 55 236 11.0 0.0 0.00 0.00 0.00 82 967.7
20260505064547 55 262 11.0 0.0 0.00 0.00 0.00 82 968.2
20260505063104 56 259 12.0 0.0 0.00 0.00 0.00 82 967.6
20260505061548 56 248 13.0 0.0 0.00 0.00 0.00 82 967.6
20260505060133 57 250 12.0 0.0 0.00 0.00 0.00 82 967.6
20260505054548 57 257 13.0 0.0 0.00 0.00 0.00 78 968.4
20260505053111 57 257 12.0 0.0 0.00 0.00 0.00 71 967.6
20260505051547 57 213 9.0 0.0 0.00 0.00 0.00 71 967.6
20260505050120 59 220 11.0 0.0 0.00 0.00 0.00 71 967.6
20260505041548 59 205 14.0 0.0 0.00 0.00 0.00 77 967.5
20260505040125 59 210 10.0 0.0 0.00 0.00 0.00 77 967.5
20260505034544 59 207 10.0 0.0 0.00 0.00 0.00 73 967.1
20260505033107 60 190 13.0 0.0 0.00 0.00 0.00 66 967.1
20260505031547 60 186 15.0 0.0 0.00 0.00 0.00 66 967.1
20260505030121 60 195 19.0 0.0 0.00 0.00 0.00 66 967.1
20260505024548 60 201 21.0 0.0 0.00 0.00 0.00 69 967.9
20260505023107 61 205 19.0 0.0 0.00 0.00 0.00 51 967.8
20260505021546 63 215 20.0 0.0 0.00 0.00 0.00 51 967.8
20260505020120 64 219 20.0 0.0 0.00 0.00 0.00 51 967.8
20260505014547 63 210 16.0 0.0 0.00 0.00 0.00 69 966.9
20260505013105 64 217 14.0 0.0 0.00 0.00 0.00 69 966.9
20260505011548 63 210 17.0 0.0 0.00 0.00 0.00 69 966.8
20260505010117 63 209 16.0 0.0 0.00 0.00 0.00 69 966.8
20260505004547 63 208 17.0 0.0 0.00 0.00 0.00 42 967.2
20260505003103 66 214 15.0 0.0 0.00 0.00 0.00 46 968.0
20260505001546 67 207 13.0 0.0 0.00 0.00 0.00 46 968.0
20260505000126 68 211 10.0 0.0 0.00 0.00 0.00 46 968.0
20260504234547 69 229 9.0 0.0 0.00 0.00 0.00 39 967.6
20260504233105 70 237 11.0 0.0 0.00 0.00 0.00 37 967.7
20260504231547 70 250 11.0 0.0 0.00 0.00 0.00 37 967.7
20260504230113 71 255 13.0 0.0 0.00 0.00 0.00 37 967.7
20260504224547 71 259 15.0 0.0 0.00 0.00 0.00 38 967.2
20260504223107 72 255 17.0 0.0 0.00 0.00 0.00 37 967.5
20260504221547 72 257 17.0 0.0 0.00 0.00 0.00 37 967.5
20260504220124 73 252 18.0 0.0 0.00 0.00 0.00 37 967.5
20260504214545 73 249 18.0 0.0 0.00 0.00 0.00 35 968.7
20260504213108 73 256 17.0 0.0 0.00 0.00 0.00 35 968.7
20260504211546 73 254 18.0 0.0 0.00 0.00 0.00 37 967.7
20260504210120 73 248 18.0 0.0 0.00 0.00 0.00 37 967.7
20260504204551 73 246 19.0 0.0 0.00 0.00 0.00 37 968.3
20260504203102 73 241 18.0 0.0 0.00 0.00 0.00 37 968.3
20260504201553 73 235 18.0 0.0 0.00 0.00 0.00 37 968.3
20260504200117 73 233 19.0 0.0 0.00 0.00 0.00 37 967.7
20260504194553 73 227 20.0 0.0 0.00 0.00 0.00 41 968.9
20260504193111 73 222 19.0 0.0 0.00 0.00 0.00 41 968.9
20260504191553 72 224 18.0 0.0 0.00 0.00 0.00 41 968.8
20260504190122 72 225 19.0 0.0 0.00 0.00 0.00 41 968.8
20260504184548 72 224 19.0 0.0 0.00 0.00 0.00 31 969.9
20260504183113 72 227 19.0 0.0 0.00 0.00 0.00 32 969.5
20260504181552 72 227 18.0 0.0 0.00 0.00 0.00 32 969.5
20260504180130 72 225 18.0 0.0 0.00 0.00 0.00 32 969.5
20260504174551 71 225 18.0 0.0 0.00 0.00 0.00 39 970.5
20260504173108 71 223 18.0 0.0 0.00 0.00 0.00 36 970.2
20260504171551 71 221 18.0 0.0 0.00 0.00 0.00 36 970.2
20260504170118 70 226 17.0 0.0 0.00 0.00 0.00 33 970.0